www.pogodaiklimat.ru

Погода и климат >> Архив погоды >> Молдова >> Кишинев


АРХИВ ПОГОДЫ в Кишиневе

Время (UTC), дата Ветер
(напр.,м/с)
 
Видим.   Явления Облачность Т
(С)
Тd
(С)
f
(%)
Тe
(С)
Тes
(С)
Комфортность P
(гПа)
Po
(гПа)
Тmin
(С)
Tmax
(С)
R
(мм)
S
(см)
21 14.02 СЗ 7
{14}
20 км 9/0
[Ac trans]
-2.0 -5.7 76 -9 -9 прохладно 1025.2 1003.6
00 15.02 СЗ 6
{12}
10 км 10/0
[Ac und]
-3.0 -5.8 81 -10 -10 прохладно 1027.6 1005.8
03 15.02 СЗ 6 10 км 10/10 600 м
[Sc]
-3.0 -5.3 84 -10 -10 прохладно 1028.4 1006.6
06 15.02 СЗ 5 4000 м дымка 10/10 600 м
[Sc]
-2.9 -5.1 85 -10 -10 прохладно 1029.0 1007.2 -3.1 4
09 15.02 СЗ 7 10 км 10/10 600 м
[Sc]
-1.2 -4.0 81 -9 -9 прохладно 1030.0 1008.3
12 15.02 СЗ 7
{12}
10 км 10/10 600 м
[Sc]
-0.2 -3.7 77 -7 -7 прохладно 1030.5 1008.9
15 15.02 СЗ 6
{12}
10 км 10/10 600 м
[Sc]
0.0 -3.9 75 -6 -6 прохладно 1031.4 1009.8
18 15.02 С 6 10 км 3/0
[Ac trans]
-1.2 -4.0 81 -8 -8 прохладно 1033.8 1012.0 +0.6
21 15.02 СЗ 6 10 км 5/0
[Ac trans]
-2.3 -4.8 83 -9 -9 прохладно 1035.1 1013.2
00 16.02 С 5 10 км 4/0
[Ci fib]
-3.4 -5.4 86 -10 -10 прохладно 1036.4 1014.4
03 16.02 С 5 10 км 3/0
[Ci fib]
-3.9 -5.4 89 -11 -11 прохладно 1035.9 1013.9
06 16.02 СЗ 3 10 км 10/10 600 м
[Sc]
-4.0 -5.0 93 -9 -9 по сезону 1036.2 1014.2 -4.5 4
09 16.02 З 2 10 км 10/10 600 м
[Sc]
-2.5 -4.4 87 -7 -7 прохладно 1035.9 1014.0
12 16.02 В 1 20 км 5/3 600 м
[Cu hum Ci fib]
+1.6 -4.1 66 0 +4 по сезону 1033.7 1012.2
15 16.02 В 2 20 км 1/0
[Ci fib]
0.0 -4.3 73 -3 -3 по сезону 1032.8 1011.2
18 16.02 Ю 1 20 км 4/0
[Ci fib]
-2.7 -4.7 86 -5 -5 по сезону 1032.3 1010.5 +2.3
21 16.02 Ю 2 10 км 3/0
[Ci fib]
-4.3 -5.4 92 -9 -9 прохладно 1031.3 1009.3
00 17.02 ЮЗ 3 500 м переохл. туман ?/? -4.9 -5.7 94 -11 -11 холодно 1030.4 1008.4
03 17.02 ЮЗ 3 200 м переохл. туман ?/? -3.4 -4.1 95 -9 -9 прохладно 1028.3 1006.5
06 17.02 ЮЗ 3 10 км {туман} [диам. изморози 2 мм] 5/0
[Ac trans Ci fib]
-3.9 -4.6 95 -9 -9 по сезону 1027.0 1005.2 -5.1 4
09 17.02 Ю 4 10 км 10/0
[Cc]
+1.2 -4.6 65 -4 -1 по сезону 1025.9 1004.5
12 17.02 Ю 4 10 км 10/0
[Ci fib]
+3.3 -3.9 59 -1 +2 по сезону 1023.4 1002.2
15 17.02 Ю 3 10 км 10/0
[Ac trans Cs]
+2.1 -3.0 69 -2 -2 по сезону 1021.7 1000.5
18 17.02 Ю 2 10 км 9/0
[As trans]
+1.5 -2.1 77 -2 -2 по сезону 1021.1 999.8 +3.5
21 17.02 Ю 2 10 км ясно 0.0 -2.7 82 -4 -4 по сезону 1020.9 999.5
00 18.02 Ю 2 10 км 8/0
[Ac trans]
-0.6 -1.9 91 -4 -4 по сезону 1020.3 998.9
03 18.02 штиль 0 10 км 10/0
[Ac und]
-0.8 -1.6 94 -2 -2 по сезону 1019.9 998.5
06 18.02 штиль 0 10 км {снег} 10/10 600 м
[Sc]
-0.8 -1.5 95 -2 -2 по сезону 1020.6 999.2 -1.0 0.0 3
09 18.02 С 2 10 км 10/0
[Ac cast Ci fib]
+2.2 -1.9 74 -1 +1 по сезону 1020.7 999.5
12 18.02 СЗ 3 10 км 10/0
[Ac und]
+4.0 -2.2 64 +1 +2 по сезону 1020.6 999.5
15 18.02 СЗ 3 4000 м дымка 10/10 600 м
[Sc]
+2.4 -0.9 79 -2 -2 по сезону 1021.5 1000.3
18 18.02 СЗ 2 4000 м дымка 10/10 600 м
[Sc]
+1.7 -0.2 87 -2 -2 по сезону 1023.5 1002.2 +4.5
21 18.02 СЗ 2 10 км 10/0
[Ac und]
+2.0 -0.3 85 -1 -1 по сезону 1024.8 1003.5
00 19.02 С 3 10 км 10/0
[Ac und]
+2.0 -0.6 83 -2 -2 по сезону 1025.8 1004.5
03 19.02 С 3 10 км 10/10 600 м
[Sc]
+2.2 -1.4 77 -2 -2 по сезону 1026.5 1005.2
06 19.02 штиль 0 10 км 8/0
[Ac trans Ci fib]
+1.8 -1.1 81 +1 +2 тепло 1027.4 1006.0 +1.4 2
09 19.02 Ю 3 10 км 6/0
[Ci fib]
+4.9 -2.0 61 +2 +6 тепло 1027.8 1006.6
12 19.02 ЮВ 2 10 км 8/4 600 м
[Cu hum Ci fib]
+5.9 -2.4 55 +4 +6 тепло 1026.6 1005.5
15 19.02 ЮВ 2 20 км 8/0
[Ac trans Ci fib]
+3.7 -1.7 68 +1 +1 по сезону 1025.7 1004.5
18 19.02 Ю 1 20 км 10/8 600 м
[Sc Ac trans]
+1.2 -1.7 81 -1 -1 по сезону 1025.4 1004.0 +6.2
21 19.02 Ю 2 20 км 10/10 600 м
[Sc]
+1.2 -1.5 82 -2 -2 по сезону 1024.6 1003.2
00 20.02 штиль 0 10 км 10/10 600 м
[Sc]
+0.6 -1.3 87 -1 -1 по сезону 1023.5 1002.1
03 20.02 В 2 10 км 10/10 600 м
[Sc]
+0.3 -1.3 89 -3 -3 по сезону 1022.1 1000.7
06 20.02 В 2 4000 м слабый ливневой дождь со снегом 10/10 600 м
[Cb calv]
+0.2 -1.4 89 -3 -3 по сезону 1021.1 999.7 +0.1 0.0 1
09 20.02 СВ 3 500 м снег {ливн. осадки} 10/0 600 м
[As op]
+0.2 -0.7 94 -5 -4 по сезону 1020.0 998.7
12 20.02 СВ 2 1000 м ливневой снег 10/10 600 м
[Cb calv]
+0.5 -0.2 95 -3 -3 по сезону 1018.3 997.0
15 20.02 С 3 1000 м слабый дождь со снегом {ливн. осадки} 10/0 600 м
[As op]
+0.6 -0.1 95 -4 -4 по сезону 1016.7 995.5
18 20.02 С 3 4000 м в посл. час дождь со снегом {ливн. осадки} 10/10 600 м
[Sc]
+0.6 -0.5 92 -4 -4 по сезону 1016.1 994.9 +0.8 4
21 20.02 С 4 4000 м дымка 10/10 600 м
[Sc]
+0.8 -0.8 89 -5 -5 по сезону 1015.1 993.9
00 21.02 СЗ 2 4000 м дымка ясно -0.3 -1.4 92 -4 -4 по сезону 1013.6 992.3
03 21.02 ЮЗ 3 200 м переохл. туман ?/? -2.4 -2.9 96 -8 -8 по сезону 1012.3 990.9
06 21.02 З 3 200 м переохл. туман ?/? -2.0 -2.6 96 -7 -7 по сезону 1011.0 989.7 -2.7 1
09 21.02 ЮЗ 4 20 км {туман} 10/0
[Ac und]
+1.4 -2.0 78 -4 -2 по сезону 1009.2 988.2
12 21.02 З 6 20 км {туман} 10/0
[Ac As]
+3.5 -2.0 67 -2 -1 по сезону 1007.3 986.5
15 21.02 ЮЗ 3 20 км слабый дождь 10/10 600 м
[Sc]
+3.2 -0.6 76 -1 -1 по сезону 1006.3 985.5
18 21.02 З 5 10 км слабый дождь 10/10 600 м
[Sc]
+3.1 0.0 80 -2 -2 по сезону 1006.3 985.5 +3.8 0.0

 

Местоположение метеостанции Кишинев (Молдова): широта 47.02 долгота 28.98 высота над уровнем моря 173 м.

В архиве по умолчанию представлена погода в Кишиневе за последнюю неделю. Архивные данные за месяц целиком и за предыдущие месяцы, начиная с января 2011 года, Вы можете получить, выбрав интересующий диапазон дат из раскрывающегося списка и нажав кнопку "Ввод!".

Внимание! Время в таблицах - всемирное. Для получения местного времени необходимо прибавить поправку, которая в Кишиневе равна 2 ч.

Смотрите также архив погоды в соседних городах и на ближайших метеорологических станциях:

Погода в Дубоссарах (Молдова) (29 км)
Погода в Тирасполе (Молдова) (49 км)
Погода в Бравичах (Молдова) (57 км)
Погода в Штефан Водэ (Молдова) (67 км)
Погода в Корнестах (Молдова) (76 км)
Погода в Затишье (Одесская область, Украина) (76 км)
Погода в Леове (Молдова) (80 км)
Погода в Заставе (Одесская область, Украина) (81 км)
Погода в Рыбнице (Молдова) (83 км)
Погода в Комрате (Молдова) (84 км)

Пояснения к столбцам:

Ветер - указаны скорость ветра в м/с - средняя за 10 мин, порывы в срок и между сроками (в фигурных скобках) и направление, откуда дует ветер: С - северный, СВ - северо-восточный, В - восточный, ЮВ - юго-восточный, Ю - южный, ЮЗ - юго-западный, З - западный, СЗ - северо-западный.
Видимость - горизонтальная дальность видимости в метрах или километрах. При видимости от 1 до 10 км при отсутствии осадков обычно наблюдается дымка, при ухудшении видимости до 1 км и менее - туман. В сухую погоду видимость может ухудшаться дымом, пылью или мглою.
Явления - указаны атмосферные явления, наблюдавшиеся в срок или в последний час перед сроком; фигурными скобками обозначены явления, наблюдавшиеся между сроками (за 1-3 часа до срока); квадратными скобками обозначены град или гололедные отложения с указанием их диаметра в мм.
Облачность - указаны через наклонную черту общая и нижняя облачность в баллах и высота нижней границы облаков в метрах; квадратными скобками обозначены формы облаков: Ci - перистые, Cs - перисто-слоистые, Cc - перисто-кучевые, Ac - высококучевые, As - высокослоистые, Sc - слоисто-кучевые, Ns - слоисто-дождевые, Cu - кучевые, Cb - кучево-дождевые. Подробнее классификацию облаков см. в Атласе облаков (PDF).
T - Температура воздуха - температура, измеренная на высоте 2 м над землей.
Td - Температура точки росы - температура, при понижении до которой содержащийся в воздухе водяной пар достигнет насыщения.
f - Относительная влажность воздуха - влажноcть воздуха, измеренная на высоте 2 м над землей.
Te - Эффективная температура - температура, которую ощущает одетый по сезону человек в тени. Характеристика душности погоды. При расчете учитывается влияние влажности воздуха и скорости ветра на теплоощущения человека.
Tes - Эффективная температура на солнце - температура, которую ощущает человек, с поправкой на солнечный нагрев. Характеристика знойности погоды. Зависит от высоты солнца над горизонтом, облачности и скорости ветра. Ночью, в пасмурную погоду, а также при ветре 12 м/с и более поправка равна нулю.
P - Атмосферное давление - приведенное к уровню моря атмосферное давление.
Po - Атмосферное давление - измеренное на уровне метеостанции атмосферное давление.
Tmin - Минимальная температура - минимум температуры воздуха на высоте 2 м над землей.
Tmax - Максимальная температура - максимум температуры воздуха на высоте 2 м над землей.
R - Количество осадков - Количество выпавших осадков, мм. При наведении курсора мыши на число - период времени, за который выпало указанное количество осадков.
S - Снежный покров - Высота снежного покрова, см. При наведении курсора мыши на число - состояние снежного покрова и степень покрытия местности в баллах.